#datetime,building,power
2023-08-05T00:01:00,pth,1.20
2023-08-05T00:03:00,pth,1.20
2023-08-05T00:04:00,pth,1.20
2023-08-05T00:06:00,pth,1.20
2023-08-05T00:08:00,pth,2.40
2023-08-05T00:11:00,pth,2.40
2023-08-05T00:13:00,pth,1.20
2023-08-05T00:15:00,pth,2.40
2023-08-05T00:17:00,pth,1.20
2023-08-05T00:18:00,pth,1.20
2023-08-05T00:20:00,pth,1.20
2023-08-05T00:21:00,pth,1.20
2023-08-05T00:23:00,pth,1.20
2023-08-05T00:24:00,pth,1.20
2023-08-05T00:26:00,pth,1.20
2023-08-05T00:27:00,pth,1.20
2023-08-05T00:28:00,pth,1.20
2023-08-05T00:30:00,pth,1.20
2023-08-05T00:32:00,pth,2.40
2023-08-05T00:34:00,pth,1.20
2023-08-05T00:35:00,pth,1.20
2023-08-05T00:37:00,pth,1.20
2023-08-05T00:39:00,pth,2.40
2023-08-05T00:41:00,pth,1.20
2023-08-05T00:42:00,pth,1.20
2023-08-05T00:44:00,pth,1.20
2023-08-05T00:46:00,pth,1.20
2023-08-05T00:47:00,pth,1.20
2023-08-05T00:49:00,pth,2.40
2023-08-05T00:51:00,pth,1.20
2023-08-05T00:53:00,pth,2.40
2023-08-05T00:55:00,pth,1.20
2023-08-05T00:57:00,pth,1.20
2023-08-05T00:59:00,pth,2.40
2023-08-05T01:01:00,pth,1.20
2023-08-05T01:02:00,pth,1.20
2023-08-05T01:04:00,pth,1.20
2023-08-05T01:05:00,pth,1.20
2023-08-05T01:07:00,pth,1.20
2023-08-05T01:09:00,pth,2.40
2023-08-05T01:10:00,pth,1.20
2023-08-05T01:13:00,pth,2.40
2023-08-05T01:16:00,pth,2.40
2023-08-05T01:19:00,pth,2.40
2023-08-05T01:21:00,pth,1.20
2023-08-05T01:23:00,pth,2.40
2023-08-05T01:25:00,pth,1.20
2023-08-05T01:27:00,pth,1.20
2023-08-05T01:29:00,pth,1.20
2023-08-05T01:30:00,pth,1.20
2023-08-05T01:32:00,pth,1.20
2023-08-05T01:34:00,pth,1.20
2023-08-05T01:36:00,pth,2.40
2023-08-05T01:38:00,pth,1.20
2023-08-05T01:40:00,pth,1.20
2023-08-05T01:41:00,pth,1.20
2023-08-05T01:42:00,pth,1.20
2023-08-05T01:44:00,pth,1.20
2023-08-05T01:45:00,pth,1.20
2023-08-05T01:47:00,pth,1.20
2023-08-05T01:49:00,pth,1.20
2023-08-05T01:50:00,pth,1.20
2023-08-05T01:52:00,pth,1.20
2023-08-05T01:54:00,pth,1.20
2023-08-05T01:55:00,pth,1.20
2023-08-05T01:56:00,pth,1.20
2023-08-05T01:58:00,pth,1.20
2023-08-05T02:00:00,pth,1.20
2023-08-05T02:01:00,pth,1.20
2023-08-05T02:03:00,pth,1.20
2023-08-05T02:04:00,pth,1.20
2023-08-05T02:06:00,pth,1.20
2023-08-05T02:08:00,pth,1.20
2023-08-05T02:10:00,pth,1.20
2023-08-05T02:12:00,pth,2.40
2023-08-05T02:14:00,pth,1.20
2023-08-05T02:16:00,pth,1.20
2023-08-05T02:17:00,pth,1.20
2023-08-05T02:20:00,pth,1.20
2023-08-05T02:21:00,pth,1.20
2023-08-05T02:23:00,pth,1.20
2023-08-05T02:24:00,pth,1.20
2023-08-05T02:26:00,pth,1.20
2023-08-05T02:27:00,pth,1.20
2023-08-05T02:29:00,pth,1.20
2023-08-05T02:31:00,pth,2.40
2023-08-05T02:34:00,pth,1.20
2023-08-05T02:36:00,pth,2.40
2023-08-05T02:38:00,pth,1.20
2023-08-05T02:40:00,pth,1.20
2023-08-05T02:42:00,pth,2.40
2023-08-05T02:44:00,pth,1.20
2023-08-05T02:47:00,pth,2.40
2023-08-05T02:50:00,pth,2.40
2023-08-05T02:53:00,pth,1.20
2023-08-05T02:54:00,pth,1.20
2023-08-05T02:56:00,pth,1.20
2023-08-05T02:57:00,pth,1.20
2023-08-05T02:59:00,pth,1.20
2023-08-05T03:01:00,pth,1.20
2023-08-05T03:02:00,pth,1.20
2023-08-05T03:03:00,pth,1.20
2023-08-05T03:05:00,pth,1.20
2023-08-05T03:08:00,pth,2.40
2023-08-05T03:10:00,pth,1.20
2023-08-05T03:11:00,pth,1.20
2023-08-05T03:13:00,pth,1.20
2023-08-05T03:14:00,pth,1.20
2023-08-05T03:17:00,pth,1.20
2023-08-05T03:19:00,pth,2.40
2023-08-05T03:21:00,pth,1.20
2023-08-05T03:23:00,pth,2.40
2023-08-05T03:25:00,pth,1.20
2023-08-05T03:26:00,pth,1.20
2023-08-05T03:28:00,pth,1.20
2023-08-05T03:30:00,pth,1.20
2023-08-05T03:31:00,pth,1.20
2023-08-05T03:33:00,pth,2.40
2023-08-05T03:35:00,pth,1.20
2023-08-05T03:37:00,pth,2.40
2023-08-05T03:38:00,pth,1.20
2023-08-05T03:40:00,pth,2.40
2023-08-05T03:42:00,pth,1.20
2023-08-05T03:44:00,pth,2.40
2023-08-05T03:46:00,pth,1.20
2023-08-05T03:47:00,pth,1.20
2023-08-05T03:49:00,pth,1.20
2023-08-05T03:50:00,pth,1.20
2023-08-05T03:52:00,pth,1.20
2023-08-05T03:54:00,pth,2.40
2023-08-05T03:56:00,pth,1.20
2023-08-05T03:58:00,pth,1.20
2023-08-05T04:00:00,pth,2.40
2023-08-05T04:02:00,pth,1.20
2023-08-05T04:04:00,pth,2.40
2023-08-05T04:06:00,pth,1.20
2023-08-05T04:08:00,pth,2.40
2023-08-05T04:10:00,pth,1.20
2023-08-05T04:11:00,pth,1.20
2023-08-05T04:13:00,pth,1.20
2023-08-05T04:15:00,pth,1.20
2023-08-05T04:16:00,pth,1.20
2023-08-05T04:18:00,pth,1.20
2023-08-05T04:20:00,pth,2.40
2023-08-05T04:22:00,pth,1.20
2023-08-05T04:24:00,pth,2.40
2023-08-05T04:26:00,pth,1.20
2023-08-05T04:28:00,pth,1.20
2023-08-05T04:30:00,pth,2.40
2023-08-05T04:32:00,pth,1.20
2023-08-05T04:34:00,pth,1.20
2023-08-05T04:35:00,pth,1.20
2023-08-05T04:37:00,pth,1.20
2023-08-05T04:39:00,pth,1.20
2023-08-05T04:41:00,pth,2.40
2023-08-05T04:44:00,pth,2.40
2023-08-05T04:46:00,pth,1.20
2023-08-05T04:47:00,pth,1.20
2023-08-05T04:49:00,pth,1.20
2023-08-05T04:51:00,pth,1.20
2023-08-05T04:52:00,pth,1.20
2023-08-05T04:54:00,pth,1.20
2023-08-05T04:55:00,pth,1.20
2023-08-05T04:57:00,pth,1.20
2023-08-05T04:59:00,pth,1.20
2023-08-05T05:00:00,pth,1.20
2023-08-05T05:02:00,pth,1.20
2023-08-05T05:04:00,pth,1.20
2023-08-05T05:06:00,pth,1.20
2023-08-05T05:08:00,pth,1.20
2023-08-05T05:10:00,pth,2.40
2023-08-05T05:12:00,pth,1.20
2023-08-05T05:14:00,pth,1.20
2023-08-05T05:15:00,pth,1.20
2023-08-05T05:17:00,pth,1.20
2023-08-05T05:20:00,pth,2.40
2023-08-05T05:22:00,pth,1.20
2023-08-05T05:23:00,pth,1.20
2023-08-05T05:25:00,pth,1.20
2023-08-05T05:26:00,pth,1.20
2023-08-05T05:28:00,pth,1.20
2023-08-05T05:30:00,pth,1.20
2023-08-05T05:31:00,pth,1.20
2023-08-05T05:33:00,pth,1.20
2023-08-05T05:34:00,pth,1.20
2023-08-05T05:36:00,pth,1.20
2023-08-05T05:38:00,pth,1.20
2023-08-05T05:39:00,pth,1.20
2023-08-05T05:41:00,pth,1.20
2023-08-05T05:43:00,pth,1.20
2023-08-05T05:45:00,pth,1.20
2023-08-05T05:46:00,pth,1.20
2023-08-05T05:48:00,pth,1.20
2023-08-05T05:49:00,pth,1.20
2023-08-05T05:51:00,pth,1.20
2023-08-05T05:52:00,pth,1.20
2023-08-05T05:54:00,pth,1.20
2023-08-05T05:56:00,pth,1.20
2023-08-05T05:57:00,pth,1.20
2023-08-05T05:59:00,pth,1.20
2023-08-05T06:01:00,pth,1.20
2023-08-05T06:03:00,pth,1.20
2023-08-05T06:04:00,pth,1.20
2023-08-05T06:06:00,pth,1.20
2023-08-05T06:08:00,pth,1.20
2023-08-05T06:10:00,pth,2.40
2023-08-05T06:12:00,pth,1.20
2023-08-05T06:14:00,pth,1.20
2023-08-05T06:16:00,pth,2.40
2023-08-05T06:18:00,pth,1.20
2023-08-05T06:20:00,pth,1.20
2023-08-05T06:22:00,pth,1.20
2023-08-05T06:24:00,pth,1.20
2023-08-05T06:25:00,pth,1.20
2023-08-05T06:27:00,pth,1.20
2023-08-05T06:29:00,pth,1.20
2023-08-05T06:31:00,pth,1.20
2023-08-05T06:33:00,pth,1.20
2023-08-05T06:37:00,pth,1.20
2023-08-05T06:39:00,pth,1.20
2023-08-05T06:41:00,pth,1.20
2023-08-05T06:43:00,pth,1.20
2023-08-05T06:44:00,pth,1.20
2023-08-05T06:46:00,pth,1.20
2023-08-05T06:49:00,pth,1.20
2023-08-05T06:51:00,pth,1.20
2023-08-05T06:52:00,pth,1.20
2023-08-05T06:54:00,pth,1.20
2023-08-05T06:56:00,pth,1.20
2023-08-05T06:59:00,pth,1.20
2023-08-05T07:00:00,pth,1.20
2023-08-05T07:02:00,pth,1.20
2023-08-05T07:04:00,pth,1.20
2023-08-05T07:07:00,pth,1.20
2023-08-05T07:08:00,pth,1.20
2023-08-05T07:10:00,pth,1.20
2023-08-05T07:12:00,pth,1.20
2023-08-05T07:14:00,pth,1.20
2023-08-05T07:17:00,pth,1.20
2023-08-05T07:18:00,pth,1.20
2023-08-05T07:20:00,pth,1.20
2023-08-05T07:22:00,pth,1.20
2023-08-05T07:24:00,pth,1.20
2023-08-05T07:26:00,pth,1.20
2023-08-05T07:28:00,pth,1.20
2023-08-05T07:32:00,pth,1.20
2023-08-05T07:34:00,pth,1.20
2023-08-05T07:36:00,pth,1.20
2023-08-05T07:37:00,pth,1.20
2023-08-05T07:40:00,pth,1.20
2023-08-05T07:41:00,pth,1.20
2023-08-05T07:44:00,pth,2.40
2023-08-05T07:46:00,pth,1.20
2023-08-05T07:48:00,pth,3.60
2023-08-05T07:50:00,pth,2.40
2023-08-05T07:52:00,pth,2.40
2023-08-05T07:53:00,pth,2.40
2023-08-05T07:54:00,pth,1.20
2023-08-05T07:56:00,pth,2.40
2023-08-05T07:57:00,pth,1.20
2023-08-05T07:59:00,pth,2.40
2023-08-05T08:01:00,pth,1.20
2023-08-05T08:04:00,pth,1.20
2023-08-05T08:06:00,pth,1.20
2023-08-05T08:08:00,pth,1.20
2023-08-05T08:10:00,pth,1.20
2023-08-05T08:11:00,pth,1.20
2023-08-05T08:13:00,pth,1.20
2023-08-05T08:15:00,pth,1.20
2023-08-05T08:17:00,pth,1.20
2023-08-05T08:20:00,pth,1.20
2023-08-05T08:22:00,pth,1.20
2023-08-05T08:24:00,pth,1.20
2023-08-05T08:26:00,pth,1.20
2023-08-05T08:28:00,pth,1.20
2023-08-05T08:30:00,pth,1.20
2023-08-05T08:31:00,pth,1.20
2023-08-05T08:33:00,pth,1.20
2023-08-05T08:35:00,pth,1.20
2023-08-05T08:37:00,pth,1.20
2023-08-05T08:40:00,pth,1.20
2023-08-05T08:42:00,pth,1.20
2023-08-05T08:44:00,pth,1.20
2023-08-05T08:46:00,pth,1.20
2023-08-05T08:50:00,pth,1.20
2023-08-05T08:52:00,pth,1.20
2023-08-05T08:54:00,pth,1.20
2023-08-05T08:56:00,pth,1.20
2023-08-05T08:59:00,pth,1.20
2023-08-05T09:01:00,pth,1.20
2023-08-05T09:03:00,pth,1.20
2023-08-05T09:05:00,pth,1.20
2023-08-05T09:09:00,pth,1.20
2023-08-05T09:11:00,pth,1.20
2023-08-05T09:12:00,pth,1.20
2023-08-05T09:16:00,pth,1.20
2023-08-05T09:18:00,pth,1.20
2023-08-05T09:19:00,pth,1.20
2023-08-05T09:22:00,pth,1.20
2023-08-05T09:25:00,pth,1.20
2023-08-05T09:26:00,pth,1.20
2023-08-05T09:28:00,pth,1.20
2023-08-05T09:31:00,pth,1.20
2023-08-05T09:33:00,pth,1.20
2023-08-05T09:36:00,pth,1.20
2023-08-05T09:38:00,pth,1.20
2023-08-05T09:42:00,pth,1.20
2023-08-05T09:44:00,pth,1.20
2023-08-05T09:47:00,pth,1.20
2023-08-05T09:48:00,pth,1.20
2023-08-05T09:50:00,pth,1.20
2023-08-05T09:53:00,pth,1.20
2023-08-05T09:56:00,pth,1.20
2023-08-05T09:58:00,pth,1.20
2023-08-05T10:00:00,pth,1.20
2023-08-05T10:03:00,pth,1.20
2023-08-05T10:04:00,pth,1.20
2023-08-05T10:07:00,pth,1.20
2023-08-05T10:09:00,pth,1.20
2023-08-05T10:12:00,pth,1.20
2023-08-05T10:14:00,pth,1.20
2023-08-05T10:17:00,pth,1.20
2023-08-05T10:19:00,pth,1.20
2023-08-05T10:21:00,pth,1.20
2023-08-05T10:24:00,pth,1.20
2023-08-05T10:27:00,pth,1.20
2023-08-05T10:28:00,pth,1.20
2023-08-05T10:30:00,pth,1.20
2023-08-05T10:33:00,pth,1.20
2023-08-05T10:35:00,pth,1.20
2023-08-05T10:36:00,pth,1.20
2023-08-05T10:38:00,pth,2.40
2023-08-05T10:39:00,pth,1.20
2023-08-05T10:41:00,pth,1.20
2023-08-05T10:43:00,pth,2.40
2023-08-05T10:45:00,pth,1.20
2023-08-05T10:46:00,pth,1.20
2023-08-05T10:48:00,pth,1.20
2023-08-05T10:51:00,pth,1.20
2023-08-05T10:52:00,pth,1.20
2023-08-05T10:54:00,pth,1.20
2023-08-05T10:57:00,pth,1.20
2023-08-05T10:59:00,pth,1.20
2023-08-05T11:01:00,pth,1.20
2023-08-05T11:03:00,pth,1.20
2023-08-05T11:04:00,pth,1.20
2023-08-05T11:06:00,pth,1.20
2023-08-05T11:07:00,pth,1.20
2023-08-05T11:10:00,pth,1.20
2023-08-05T11:12:00,pth,2.40
2023-08-05T11:15:00,pth,2.40
2023-08-05T11:16:00,pth,1.20
2023-08-05T11:18:00,pth,2.40
2023-08-05T11:20:00,pth,2.40
2023-08-05T11:23:00,pth,2.40
2023-08-05T11:25:00,pth,2.40
2023-08-05T11:27:00,pth,1.20
2023-08-05T11:29:00,pth,1.20
2023-08-05T11:30:00,pth,1.20
2023-08-05T11:33:00,pth,2.40
2023-08-05T11:35:00,pth,2.40
2023-08-05T11:38:00,pth,2.40
2023-08-05T11:40:00,pth,1.20
2023-08-05T11:42:00,pth,1.20
2023-08-05T11:43:00,pth,4.80
2023-08-05T11:44:00,pth,6.00
2023-08-05T11:46:00,pth,13.20
2023-08-05T11:47:00,pth,6.00
2023-08-05T11:48:00,pth,6.00
2023-08-05T11:50:00,pth,12.00
2023-08-05T11:52:00,pth,12.00
2023-08-05T11:54:00,pth,12.00
2023-08-05T11:55:00,pth,7.20
2023-08-05T11:57:00,pth,12.00
2023-08-05T11:59:00,pth,12.00
2023-08-05T12:01:00,pth,12.00
2023-08-05T12:03:00,pth,13.20
2023-08-05T12:04:00,pth,6.00
2023-08-05T12:05:00,pth,6.00
2023-08-05T12:07:00,pth,12.00
2023-08-05T12:09:00,pth,12.00
2023-08-05T12:10:00,pth,1.20
2023-08-05T12:12:00,pth,13.20
2023-08-05T12:14:00,pth,7.20
2023-08-05T12:16:00,pth,12.00
2023-08-05T12:17:00,pth,6.00
2023-08-05T12:19:00,pth,6.00
2023-08-05T12:20:00,pth,6.00
2023-08-05T12:22:00,pth,7.20
2023-08-05T12:23:00,pth,4.80
2023-08-05T12:24:00,pth,6.00
2023-08-05T12:26:00,pth,4.80
2023-08-05T12:28:00,pth,12.00
2023-08-05T12:29:00,pth,3.60
2023-08-05T12:30:00,pth,1.20
2023-08-05T12:32:00,pth,13.20
2023-08-05T12:34:00,pth,4.80
2023-08-05T12:36:00,pth,10.80
2023-08-05T12:37:00,pth,1.20
2023-08-05T12:38:00,pth,4.80
2023-08-05T12:40:00,pth,7.20
2023-08-05T12:42:00,pth,1.20
2023-08-05T12:43:00,pth,1.20
2023-08-05T12:46:00,pth,1.20
2023-08-05T12:48:00,pth,1.20
2023-08-05T12:49:00,pth,1.20
2023-08-05T12:51:00,pth,1.20
2023-08-05T12:54:00,pth,1.20
2023-08-05T12:55:00,pth,1.20
2023-08-05T12:56:00,pth,1.20
2023-08-05T12:57:00,pth,1.20
2023-08-05T12:59:00,pth,1.20
2023-08-05T13:00:00,pth,1.20
2023-08-05T13:01:00,pth,1.20
2023-08-05T13:03:00,pth,1.20
2023-08-05T13:05:00,pth,1.20
2023-08-05T13:07:00,pth,1.20
2023-08-05T13:08:00,pth,1.20
2023-08-05T13:10:00,pth,1.20
2023-08-05T13:11:00,pth,1.20
2023-08-05T13:13:00,pth,1.20
2023-08-05T13:14:00,pth,1.20
2023-08-05T13:16:00,pth,2.40
2023-08-05T13:18:00,pth,1.20
2023-08-05T13:20:00,pth,2.40
2023-08-05T13:22:00,pth,2.40
2023-08-05T13:24:00,pth,2.40
2023-08-05T13:26:00,pth,2.40
2023-08-05T13:29:00,pth,2.40
2023-08-05T13:31:00,pth,1.20
2023-08-05T13:32:00,pth,1.20
2023-08-05T13:34:00,pth,1.20
2023-08-05T13:35:00,pth,1.20
2023-08-05T13:37:00,pth,2.40
2023-08-05T13:39:00,pth,2.40
2023-08-05T13:41:00,pth,7.20
2023-08-05T13:43:00,pth,12.00
2023-08-05T13:45:00,pth,12.00
2023-08-05T13:47:00,pth,12.00
2023-08-05T13:49:00,pth,12.00
2023-08-05T13:50:00,pth,6.00
2023-08-05T13:52:00,pth,7.20
2023-08-05T13:54:00,pth,6.00
2023-08-05T13:55:00,pth,6.00
2023-08-05T13:57:00,pth,7.20
2023-08-05T13:59:00,pth,7.20
2023-08-05T14:00:00,pth,3.60
2023-08-05T14:02:00,pth,8.40
2023-08-05T14:04:00,pth,4.80
2023-08-05T14:06:00,pth,6.00
2023-08-05T14:07:00,pth,4.80
2023-08-05T14:09:00,pth,6.00
2023-08-05T14:11:00,pth,7.20
2023-08-05T14:12:00,pth,1.20
2023-08-05T14:14:00,pth,7.20
2023-08-05T14:16:00,pth,7.20
2023-08-05T14:17:00,pth,1.20
2023-08-05T14:18:00,pth,6.00
2023-08-05T14:20:00,pth,6.00
2023-08-05T14:22:00,pth,4.80
2023-08-05T14:23:00,pth,3.60
2023-08-05T14:24:00,pth,1.20
2023-08-05T14:26:00,pth,7.20
2023-08-05T14:27:00,pth,3.60
2023-08-05T14:29:00,pth,6.00
2023-08-05T14:30:00,pth,4.80
2023-08-05T14:32:00,pth,6.00
2023-08-05T14:34:00,pth,4.80
2023-08-05T14:35:00,pth,3.60
2023-08-05T14:37:00,pth,7.20
2023-08-05T14:40:00,pth,1.20
2023-08-05T14:42:00,pth,1.20
2023-08-05T14:43:00,pth,1.20
2023-08-05T14:45:00,pth,1.20
2023-08-05T14:49:00,pth,1.20
2023-08-05T14:51:00,pth,1.20
2023-08-05T14:53:00,pth,1.20
2023-08-05T14:55:00,pth,2.40
2023-08-05T14:57:00,pth,1.20
2023-08-05T15:00:00,pth,2.40
2023-08-05T15:01:00,pth,6.00
2023-08-05T15:02:00,pth,6.00
2023-08-05T15:04:00,pth,12.00
2023-08-05T15:05:00,pth,6.00
2023-08-05T15:07:00,pth,7.20
2023-08-05T15:09:00,pth,6.00
2023-08-05T15:10:00,pth,6.00
2023-08-05T15:12:00,pth,4.80
2023-08-05T15:14:00,pth,7.20
2023-08-05T15:15:00,pth,3.60
2023-08-05T15:17:00,pth,6.00
2023-08-05T15:19:00,pth,6.00
2023-08-05T15:21:00,pth,8.40
2023-08-05T15:22:00,pth,1.20
2023-08-05T15:24:00,pth,7.20
2023-08-05T15:26:00,pth,8.40
2023-08-05T15:29:00,pth,8.40
2023-08-05T15:30:00,pth,1.20
2023-08-05T15:32:00,pth,7.20
2023-08-05T15:34:00,pth,7.20
2023-08-05T15:36:00,pth,8.40
2023-08-05T15:38:00,pth,4.80
2023-08-05T15:40:00,pth,6.00
2023-08-05T15:41:00,pth,6.00
2023-08-05T15:43:00,pth,4.80
2023-08-05T15:45:00,pth,4.80
2023-08-05T15:47:00,pth,8.40
2023-08-05T15:49:00,pth,7.20
2023-08-05T15:51:00,pth,7.20
2023-08-05T15:53:00,pth,4.80
2023-08-05T15:55:00,pth,6.00
2023-08-05T15:57:00,pth,8.40
2023-08-05T15:59:00,pth,1.20
2023-08-05T16:01:00,pth,1.20
2023-08-05T16:03:00,pth,1.20
2023-08-05T16:04:00,pth,1.20
2023-08-05T16:06:00,pth,1.20
2023-08-05T16:07:00,pth,1.20
2023-08-05T16:10:00,pth,2.40
2023-08-05T16:12:00,pth,1.20
2023-08-05T16:15:00,pth,1.20
2023-08-05T16:17:00,pth,1.20
2023-08-05T16:18:00,pth,1.20
2023-08-05T16:19:00,pth,1.20
2023-08-05T16:22:00,pth,1.20
2023-08-05T16:24:00,pth,1.20
2023-08-05T16:26:00,pth,1.20
2023-08-05T16:27:00,pth,1.20
2023-08-05T16:29:00,pth,1.20
2023-08-05T16:31:00,pth,1.20
2023-08-05T16:34:00,pth,1.20
2023-08-05T16:36:00,pth,1.20
2023-08-05T16:38:00,pth,1.20
2023-08-05T16:40:00,pth,2.40
2023-08-05T16:43:00,pth,1.20
2023-08-05T16:46:00,pth,1.20
2023-08-05T16:48:00,pth,1.20
2023-08-05T16:49:00,pth,1.20
2023-08-05T16:51:00,pth,1.20
2023-08-05T16:53:00,pth,1.20
2023-08-05T16:56:00,pth,1.20
2023-08-05T16:58:00,pth,1.20
2023-08-05T17:00:00,pth,1.20
2023-08-05T17:01:00,pth,1.20
2023-08-05T17:03:00,pth,1.20
2023-08-05T17:05:00,pth,1.20
2023-08-05T17:08:00,pth,1.20
2023-08-05T17:10:00,pth,1.20
2023-08-05T17:12:00,pth,1.20
2023-08-05T17:13:00,pth,1.20
2023-08-05T17:15:00,pth,1.20
2023-08-05T17:18:00,pth,1.20
2023-08-05T17:20:00,pth,1.20
2023-08-05T17:23:00,pth,1.20
2023-08-05T17:25:00,pth,1.20
2023-08-05T17:27:00,pth,1.20
2023-08-05T17:29:00,pth,1.20
2023-08-05T17:32:00,pth,1.20
2023-08-05T17:34:00,pth,1.20
2023-08-05T17:36:00,pth,1.20
2023-08-05T17:38:00,pth,1.20
2023-08-05T17:41:00,pth,1.20
2023-08-05T17:43:00,pth,1.20
2023-08-05T17:46:00,pth,1.20
2023-08-05T17:48:00,pth,1.20
2023-08-05T17:50:00,pth,1.20
2023-08-05T17:52:00,pth,1.20
2023-08-05T17:55:00,pth,1.20
2023-08-05T17:57:00,pth,1.20
2023-08-05T17:59:00,pth,1.20
2023-08-05T18:01:00,pth,1.20
2023-08-05T18:03:00,pth,1.20
2023-08-05T18:04:00,pth,1.20
2023-08-05T18:07:00,pth,1.20
2023-08-05T18:09:00,pth,1.20
2023-08-05T18:13:00,pth,1.20
2023-08-05T18:15:00,pth,1.20
2023-08-05T18:18:00,pth,1.20
2023-08-05T18:19:00,pth,1.20
2023-08-05T18:21:00,pth,1.20
2023-08-05T18:23:00,pth,1.20
2023-08-05T18:26:00,pth,1.20
2023-08-05T18:27:00,pth,1.20
2023-08-05T18:29:00,pth,1.20
2023-08-05T18:31:00,pth,1.20
2023-08-05T18:35:00,pth,1.20
2023-08-05T18:37:00,pth,1.20
2023-08-05T18:38:00,pth,1.20
2023-08-05T18:40:00,pth,1.20
2023-08-05T18:42:00,pth,1.20
2023-08-05T18:44:00,pth,1.20
2023-08-05T18:46:00,pth,1.20
2023-08-05T18:48:00,pth,1.20
2023-08-05T18:50:00,pth,1.20
2023-08-05T18:53:00,pth,1.20
2023-08-05T18:55:00,pth,1.20
2023-08-05T18:56:00,pth,1.20
2023-08-05T18:58:00,pth,1.20
2023-08-05T19:00:00,pth,1.20
2023-08-05T19:02:00,pth,1.20
2023-08-05T19:04:00,pth,1.20
2023-08-05T19:06:00,pth,1.20
2023-08-05T19:08:00,pth,1.20
2023-08-05T19:10:00,pth,1.20
2023-08-05T19:14:00,pth,1.20
2023-08-05T19:16:00,pth,1.20
2023-08-05T19:17:00,pth,1.20
2023-08-05T19:19:00,pth,1.20
2023-08-05T19:21:00,pth,2.40
2023-08-05T19:23:00,pth,1.20
2023-08-05T19:25:00,pth,1.20
2023-08-05T19:28:00,pth,1.20
2023-08-05T19:30:00,pth,1.20
2023-08-05T19:32:00,pth,2.40
2023-08-05T19:34:00,pth,1.20
2023-08-05T19:36:00,pth,1.20
2023-08-05T19:38:00,pth,1.20
2023-08-05T19:40:00,pth,1.20
2023-08-05T19:43:00,pth,1.20
2023-08-05T19:44:00,pth,1.20
2023-08-05T19:46:00,pth,1.20
2023-08-05T19:48:00,pth,1.20
2023-08-05T19:50:00,pth,1.20
2023-08-05T19:52:00,pth,1.20
2023-08-05T19:54:00,pth,1.20
2023-08-05T19:56:00,pth,1.20
2023-08-05T19:59:00,pth,1.20
2023-08-05T20:00:00,pth,1.20
2023-08-05T20:02:00,pth,1.20
2023-08-05T20:04:00,pth,1.20
2023-08-05T20:07:00,pth,1.20
2023-08-05T20:10:00,pth,1.20
2023-08-05T20:12:00,pth,1.20
2023-08-05T20:14:00,pth,1.20
2023-08-05T20:15:00,pth,1.20
2023-08-05T20:17:00,pth,1.20
2023-08-05T20:18:00,pth,1.20
2023-08-05T20:19:00,pth,1.20
2023-08-05T20:21:00,pth,1.20
2023-08-05T20:23:00,pth,1.20
2023-08-05T20:25:00,pth,2.40
2023-08-05T20:27:00,pth,1.20
2023-08-05T20:29:00,pth,1.20
2023-08-05T20:30:00,pth,1.20
2023-08-05T20:32:00,pth,1.20
2023-08-05T20:33:00,pth,1.20
2023-08-05T20:36:00,pth,1.20
2023-08-05T20:37:00,pth,1.20
2023-08-05T20:39:00,pth,1.20
2023-08-05T20:41:00,pth,1.20
2023-08-05T20:43:00,pth,2.40
2023-08-05T20:45:00,pth,1.20
2023-08-05T20:48:00,pth,2.40
2023-08-05T20:50:00,pth,1.20
2023-08-05T20:52:00,pth,1.20
2023-08-05T20:54:00,pth,2.40
2023-08-05T20:57:00,pth,2.40
2023-08-05T21:00:00,pth,1.20
2023-08-05T21:02:00,pth,2.40
2023-08-05T21:04:00,pth,1.20
2023-08-05T21:05:00,pth,1.20
2023-08-05T21:07:00,pth,1.20
2023-08-05T21:08:00,pth,1.20
2023-08-05T21:10:00,pth,1.20
2023-08-05T21:12:00,pth,1.20
2023-08-05T21:14:00,pth,1.20
2023-08-05T21:15:00,pth,1.20
2023-08-05T21:17:00,pth,1.20
2023-08-05T21:18:00,pth,1.20
2023-08-05T21:20:00,pth,1.20
2023-08-05T21:22:00,pth,1.20
2023-08-05T21:23:00,pth,1.20
2023-08-05T21:25:00,pth,1.20
2023-08-05T21:27:00,pth,1.20
2023-08-05T21:28:00,pth,1.20
2023-08-05T21:30:00,pth,1.20
2023-08-05T21:31:00,pth,1.20
2023-08-05T21:33:00,pth,1.20
2023-08-05T21:34:00,pth,1.20
2023-08-05T21:36:00,pth,1.20
2023-08-05T21:37:00,pth,1.20
2023-08-05T21:39:00,pth,1.20
2023-08-05T21:40:00,pth,1.20
2023-08-05T21:41:00,pth,1.20
2023-08-05T21:43:00,pth,1.20
2023-08-05T21:45:00,pth,2.40
2023-08-05T21:47:00,pth,1.20
2023-08-05T21:48:00,pth,1.20
2023-08-05T21:50:00,pth,1.20
2023-08-05T21:52:00,pth,2.40
2023-08-05T21:54:00,pth,1.20
2023-08-05T21:56:00,pth,2.40
2023-08-05T21:58:00,pth,1.20
2023-08-05T22:00:00,pth,2.40
2023-08-05T22:01:00,pth,1.20
2023-08-05T22:03:00,pth,1.20
2023-08-05T22:04:00,pth,1.20
2023-08-05T22:05:00,pth,1.20
2023-08-05T22:07:00,pth,1.20
2023-08-05T22:08:00,pth,1.20
2023-08-05T22:11:00,pth,2.40
2023-08-05T22:13:00,pth,1.20
2023-08-05T22:15:00,pth,2.40
2023-08-05T22:17:00,pth,1.20
2023-08-05T22:19:00,pth,2.40
2023-08-05T22:21:00,pth,1.20
2023-08-05T22:23:00,pth,2.40
2023-08-05T22:25:00,pth,1.20
2023-08-05T22:27:00,pth,2.40
2023-08-05T22:28:00,pth,1.20
2023-08-05T22:30:00,pth,1.20
2023-08-05T22:31:00,pth,1.20
2023-08-05T22:33:00,pth,1.20
2023-08-05T22:34:00,pth,1.20
2023-08-05T22:36:00,pth,2.40
2023-08-05T22:37:00,pth,1.20
2023-08-05T22:39:00,pth,1.20
2023-08-05T22:41:00,pth,1.20
2023-08-05T22:42:00,pth,1.20
2023-08-05T22:44:00,pth,1.20
2023-08-05T22:46:00,pth,2.40
2023-08-05T22:47:00,pth,1.20
2023-08-05T22:50:00,pth,2.40
2023-08-05T22:52:00,pth,1.20
2023-08-05T22:54:00,pth,1.20
2023-08-05T22:55:00,pth,1.20
2023-08-05T22:57:00,pth,1.20
2023-08-05T22:59:00,pth,2.40
2023-08-05T23:01:00,pth,1.20
2023-08-05T23:02:00,pth,1.20
2023-08-05T23:05:00,pth,2.40
2023-08-05T23:07:00,pth,1.20
2023-08-05T23:09:00,pth,1.20
2023-08-05T23:10:00,pth,1.20
2023-08-05T23:12:00,pth,1.20
2023-08-05T23:14:00,pth,1.20
2023-08-05T23:16:00,pth,2.40
2023-08-05T23:18:00,pth,1.20
2023-08-05T23:20:00,pth,1.20
2023-08-05T23:22:00,pth,1.20
2023-08-05T23:24:00,pth,2.40
2023-08-05T23:26:00,pth,1.20
2023-08-05T23:28:00,pth,1.20
2023-08-05T23:29:00,pth,1.20
2023-08-05T23:31:00,pth,1.20
2023-08-05T23:33:00,pth,1.20
2023-08-05T23:35:00,pth,1.20
2023-08-05T23:36:00,pth,1.20
2023-08-05T23:37:00,pth,1.20
2023-08-05T23:39:00,pth,1.20
2023-08-05T23:42:00,pth,1.20
2023-08-05T23:44:00,pth,2.40
2023-08-05T23:47:00,pth,2.40
2023-08-05T23:49:00,pth,1.20
2023-08-05T23:51:00,pth,1.20
2023-08-05T23:52:00,pth,1.20
2023-08-05T23:54:00,pth,1.20
2023-08-05T23:56:00,pth,1.20
2023-08-05T23:58:00,pth,1.20
